This demonstration page uses our WeatherBlox Daily Observations layout. Learn more.

Left ArrowRight Arrow

53.62937, 11.41316

Hourly Observations for April 4, 2017

Temp ( °F °C ) Dew Point ( °F °C ) Humidity (%) Winds ( mph kmh ) Pressure ( in mb ) Visibility ( mi km ) Precip ( " mm )
6:20 am 06:20 Cloudy 43 6 41 5 93 93 ENE 2 4 30.30 1026 30 48 N/A
6:50 am 06:50 Cloudy 43 6 41 5 93 93 Calm 30.30 1026 30 48 N/A
7:20 am 07:20 Cloudy 43 6 41 5 93 93 VRB 1 2 30.30 1026 30 48 N/A
7:50 am 07:50 Cloudy 45 7 41 5 87 87 ENE 2 4 30.30 1026 30 48 N/A
8:20 am 08:20 Cloudy 45 7 41 5 87 87 VRB 2 4 30.30 1026 30 48 N/A
8:50 am 08:50 Cloudy 46 8 41 5 82 82 VRB 1 2 30.30 1026 30 48 N/A
9:20 am 09:20 Cloudy 48 9 41 5 76 76 VRB 1 2 30.30 1026 30 48 N/A
9:50 am 09:50 Partly Cloudy 50 10 41 5 71 71 VRB 2 4 30.30 1026 30 48 N/A
10:20 am 10:20 Mostly Sunny 50 10 39 4 67 67 VRB 1 2 30.30 1026 30 48 N/A
10:50 am 10:50 Mostly Cloudy 50 10 41 5 71 71 VRB 2 4 30.30 1026 30 48 N/A
11:20 am 11:20 Mostly Sunny 52 11 41 5 67 67 ENE 3 6 30.30 1026 30 48 N/A
11:50 am 11:50 Mostly Cloudy 52 11 39 4 62 62 VRB 2 4 30.30 1026 30 48 N/A
12:20 pm 12:20 Mostly Cloudy 52 11 41 5 67 67 VRB 2 4 30.30 1026 30 48 N/A
12:50 pm 12:50 Cloudy 54 12 39 4 58 58 SW 3 6 30.30 1026 30 48 N/A
1:20 pm 13:20 Cloudy 54 12 41 5 63 63 VRB 2 4 30.30 1026 30 48 N/A
1:50 pm 13:50 Mostly Cloudy 54 12 41 5 63 63 N 5 7 30.30 1026 30 48 N/A
2:20 pm 14:20 Mostly Cloudy 54 12 41 5 63 63 N 5 7 30.30 1026 30 48 N/A
2:50 pm 14:50 Mostly Cloudy 54 12 39 4 58 58 NNW 3 6 30.27 1025 30 48 N/A
3:20 pm 15:20 Partly Cloudy 54 12 39 4 58 58 VRB 5 7 30.27 1025 30 48 N/A
3:50 pm 15:50 Mostly Sunny 55 13 39 4 55 55 VRB 2 4 30.27 1025 30 48 N/A
4:20 pm 16:20 Mostly Sunny 55 13 39 4 55 55 E 6 9 30.27 1025 30 48 N/A
4:50 pm 16:50 Mostly Sunny 55 13 39 4 55 55 NW 5 7 30.24 1024 30 48 N/A
5:20 pm 17:20 Mostly Sunny 55 13 39 4 55 55 N 5 7 30.24 1024 7 11 N/A
5:50 pm 17:50 Mostly Sunny 55 13 41 5 59 59 NNW 5 7 30.24 1024 7 11 N/A

Powered by AerisWeather